Torna al catalogo

SL-8 DEB

LostLEO
NORAD 39837·DEBRIS·🇷🇺 Russia

Lanciato Feb 12, 1991 da Plesetsk Cosmodrome

Loading…

Prossimi Passaggi (prossime 24 ore)

TLE

ObsoletoSource: Space-Track

Epoca: May 12, 2024, 17:11 UTC

1 39837U 91009DV  24133.71631519  .00014610  00000-0  37729-1 0  9996
2 39837  73.7757 151.7278 0034750 297.2386  62.5162 13.17217699942727

Traccia SL-8 DEB in tempo reale con AllMySat

Download on the App Store